Location: Ellerstadt
(49.4644°N, 8.2615°E)
Time: 20:27:21
(UTC+00:00)

Vanguard 1 - Pass Details

Date: 15 June 2021
Orbit: 651 x 3832 km, 34.2° (Epoch: 27 July)

Event Time Altitude Azimuth Distance (km) Brightness Sun altitude
Rises 20:25:34 0° 214° (SW) 7,961 14.5 -6.7°
Reaches altitude 10° 20:32:11 10° 206° (SSW) 6,882 14.1 -7.4°
Maximum altitude 20:49:36 31° 155° (SSE) 4,573 12.9 -9.2°
Drops below altitude 10° 21:02:08 10° 101° (E) 4,978 13.2 -10.3°
Sets 21:05:53 0° 91° (E) 5,570 13.6 -10.7°
